• In Belarus
  • List of Countries
  • For 7 days
  • Water Temperature
  • Satellite Maps
  • Weather Map
  • Weather Widgets
  • user-avatar
    Login

    Hourly Weather San Juan

    Today, 19 February, Monday

    Time Temperature Precipitation Wind Pressure Humidity
    00:00 +30°C° 0 mm 3 mps 701 mmHg 42%
    01:00 +29°C° 0 mm 2 mps 701 mmHg 46%
    02:00 +28°C° 0.3 mm 2 mps 701 mmHg 50%
    03:00 +28°C° 0.3 mm 2 mps 701 mmHg 53%
    04:00 +27°C° 0.3 mm 2 mps 701 mmHg 57%
    05:00 +27°C° 1 mm 3 mps 701 mmHg 55%
    06:00 +28°C° 1 mm 3 mps 702 mmHg 53%
    07:00 +28°C° 1 mm 4 mps 702 mmHg 51%
    08:00 +29°C° 0.9 mm 4 mps 702 mmHg 49%
    09:00 +30°C° 0.9 mm 5 mps 702 mmHg 47%
    10:00 +30°C° 0.9 mm 6 mps 703 mmHg 45%
    11:00 +32°C° 0.7 mm 5 mps 702 mmHg 43%
    12:00 +32°C° 0.7 mm 5 mps 702 mmHg 41%
    13:00 +33°C° 0.7 mm 5 mps 701 mmHg 39%
    14:00 +33°C° 0.4 mm 5 mps 701 mmHg 39%
    15:00 +33°C° 0.4 mm 4 mps 700 mmHg 38%
    16:00 +33°C° 0.4 mm 4 mps 700 mmHg 37%
    17:00 +33°C° 0.8 mm 4 mps 700 mmHg 39%
    18:00 +31°C° 0.8 mm 3 mps 701 mmHg 40%
    19:00 +30°C° 0.8 mm 3 mps 701 mmHg 41%
    20:00 +30°C° 0.8 mm 3 mps 702 mmHg 42%
    21:00 +29°C° 0.8 mm 3 mps 702 mmHg 42%
    22:00 +29°C° 0.8 mm 2 mps 702 mmHg 43%
    23:00 +28°C° 0.5 mm 2 mps 702 mmHg 43%

    Tomorrow, 20 February, Tuesday

    Time Temperature Precipitation Wind Pressure Humidity
    00:00 +28°C° 0.5 mm 2 mps 702 mmHg 44%
    01:00 +27°C° 0.5 mm 2 mps 702 mmHg 44%
    02:00 +27°C° 0.2 mm 2 mps 702 mmHg 45%
    03:00 +26°C° 0.2 mm 2 mps 703 mmHg 46%
    04:00 +26°C° 0.2 mm 3 mps 703 mmHg 47%
    05:00 +26°C° 0.1 mm 4 mps 703 mmHg 45%
    06:00 +26°C° 0.1 mm 5 mps 704 mmHg 43%
    07:00 +24°C° 0.1 mm 7 mps 705 mmHg 42%
    08:00 +26°C° 0.1 mm 7 mps 705 mmHg 39%
    09:00 +27°C° 0.1 mm 6 mps 705 mmHg 36%
    10:00 +28°C° 0.1 mm 6 mps 705 mmHg 33%
    11:00 +29°C° 0 mm 6 mps 705 mmHg 32%
    12:00 +30°C° 0 mm 6 mps 705 mmHg 31%
    13:00 +32°C° 0 mm 6 mps 705 mmHg 30%
    14:00 +32°C° 0 mm 6 mps 704 mmHg 29%
    15:00 +32°C° 0 mm 5 mps 704 mmHg 29%
    16:00 +32°C° 0 mm 5 mps 704 mmHg 29%
    17:00 +32°C° 0 mm 5 mps 705 mmHg 31%
    18:00 +30°C° 0 mm 4 mps 705 mmHg 33%
    19:00 +29°C° 0 mm 4 mps 706 mmHg 35%
    20:00 +29°C° 0 mm 4 mps 706 mmHg 36%
    21:00 +28°C° 0 mm 4 mps 707 mmHg 37%
    22:00 +28°C° 0 mm 3 mps 708 mmHg 38%
    23:00 +27°C° 0.1 mm 3 mps 708 mmHg 40%

    Day after tomorrow, 21 February, Wednesday

    Time Temperature Precipitation Wind Pressure Humidity
    00:00 +27°C° 0.1 mm 3 mps 708 mmHg 41%
    01:00 +26°C° 0.1 mm 2 mps 708 mmHg 42%
    02:00 +26°C° 0 mm 2 mps 708 mmHg 44%
    03:00 +26°C° 0 mm 1 mps 708 mmHg 45%
    04:00 +25°C° 0 mm 1 mps 707 mmHg 47%
    05:00 +26°C° 0 mm 1 mps 708 mmHg 46%
    06:00 +26°C° 0 mm 1 mps 708 mmHg 45%
    07:00 +27°C° 0 mm 2 mps 709 mmHg 44%
    08:00 +28°C° 0 mm 2 mps 709 mmHg 40%
    09:00 +29°C° 0 mm 3 mps 708 mmHg 37%
    10:00 +31°C° 0 mm 3 mps 708 mmHg 33%
    11:00 +33°C° 0 mm 4 mps 707 mmHg 31%
    12:00 +34°C° 0 mm 4 mps 707 mmHg 30%
    13:00 +35°C° 0 mm 5 mps 706 mmHg 28%
    14:00 +35°C° 0 mm 5 mps 705 mmHg 27%
    15:00 +35°C° 0 mm 5 mps 705 mmHg 27%
    16:00 +36°C° 0 mm 5 mps 704 mmHg 26%
    17:00 +35°C° 0 mm 5 mps 704 mmHg 29%
    18:00 +34°C° 0 mm 5 mps 704 mmHg 31%
    19:00 +33°C° 0 mm 4 mps 705 mmHg 34%
    20:00 +32°C° 0 mm 4 mps 705 mmHg 36%
    21:00 +30°C° 0 mm 4 mps 705 mmHg 38%
    22:00 +30°C° 0 mm 4 mps 706 mmHg 40%
    23:00 +29°C° 0 mm 4 mps 705 mmHg 39%

    22 February, Thursday

    Time Temperature Precipitation Wind Pressure Humidity
    00:00 +29°C° 0 mm 4 mps 705 mmHg 38%
    01:00 +28°C° 0 mm 3 mps 705 mmHg 37%
    02:00 +28°C° 0 mm 3 mps 705 mmHg 37%
    03:00 +27°C° 0 mm 3 mps 705 mmHg 37%
    04:00 +27°C° 0 mm 2 mps 705 mmHg 38%
    05:00 +28°C° 0 mm 2 mps 705 mmHg 37%
    06:00 +28°C° 0 mm 2 mps 706 mmHg 35%
    07:00 +29°C° 0 mm 2 mps 706 mmHg 34%
    08:00 +30°C° 0.1 mm 2 mps 706 mmHg 33%
    09:00 +31°C° 0.1 mm 2 mps 706 mmHg 32%
    10:00 +32°C° 0.1 mm 2 mps 706 mmHg 31%
    11:00 +34°C° 0.1 mm 2 mps 706 mmHg 30%
    12:00 +34°C° 0.1 mm 2 mps 705 mmHg 28%
    13:00 +35°C° 0.1 mm 2 mps 705 mmHg 27%
    14:00 +35°C° 0.2 mm 2 mps 704 mmHg 26%
    15:00 +36°C° 0.2 mm 3 mps 704 mmHg 26%
    16:00 +36°C° 0.2 mm 3 mps 703 mmHg 26%
    17:00 +35°C° 0.4 mm 3 mps 704 mmHg 27%
    18:00 +34°C° 0.4 mm 3 mps 704 mmHg 29%
    19:00 +33°C° 0.4 mm 3 mps 705 mmHg 30%
    20:00 +33°C° 0.4 mm 3 mps 705 mmHg 32%
    21:00 +32°C° 0.4 mm 4 mps 706 mmHg 34%
    22:00 +30°C° 0.4 mm 4 mps 707 mmHg 36%
    23:00 +28°C° 0.5 mm 6 mps 707 mmHg 41%

    23 February, Friday

    Time Temperature Precipitation Wind Pressure Humidity
    00:00 +26°C° 0.5 mm 8 mps 707 mmHg 46%
    01:00 +22°C° 0.5 mm 10 mps 707 mmHg 51%
    02:00 +22°C° 0 mm 9 mps 707 mmHg 52%
    03:00 +21°C° 0 mm 8 mps 708 mmHg 53%
    04:00 +20°C° 0 mm 7 mps 708 mmHg 54%
    05:00 +20°C° 0 mm 6 mps 708 mmHg 53%
    06:00 +20°C° 0 mm 6 mps 708 mmHg 53%
    07:00 +20°C° 0 mm 5 mps 709 mmHg 53%
    08:00 +22°C° 0 mm 5 mps 709 mmHg 50%
    09:00 +23°C° 0 mm 5 mps 708 mmHg 46%
    10:00 +25°C° 0 mm 4 mps 708 mmHg 43%
    11:00 +26°C° 0 mm 4 mps 708 mmHg 41%
    12:00 +27°C° 0 mm 4 mps 707 mmHg 39%
    13:00 +28°C° 0 mm 4 mps 707 mmHg 37%
    14:00 +28°C° 0 mm 5 mps 707 mmHg 37%
    15:00 +28°C° 0 mm 5 mps 707 mmHg 37%
    16:00 +28°C° 0 mm 5 mps 706 mmHg 37%
    17:00 +28°C° 0 mm 5 mps 707 mmHg 39%
    18:00 +27°C° 0 mm 4 mps 708 mmHg 41%
    19:00 +26°C° 0 mm 4 mps 708 mmHg 43%
    20:00 +26°C° 0 mm 4 mps 708 mmHg 44%
    21:00 +25°C° 0 mm 4 mps 709 mmHg 45%
    22:00 +25°C° 0 mm 3 mps 709 mmHg 46%
    23:00 +25°C° 0 mm 3 mps 709 mmHg 46%

    24 February, Saturday

    Time Temperature Precipitation Wind Pressure Humidity
    00:00 +24°C° 0 mm 3 mps 709 mmHg 47%
    01:00 +24°C° 0 mm 2 mps 709 mmHg 48%
    02:00 +23°C° 0 mm 2 mps 709 mmHg 48%
    03:00 +23°C° 0 mm 2 mps 708 mmHg 49%
    04:00 +23°C° 0 mm 1 mps 708 mmHg 50%
    05:00 +23°C° 0 mm 1 mps 709 mmHg 49%
    06:00 +23°C° 0 mm 1 mps 709 mmHg 47%
    07:00 +24°C° 0 mm 1 mps 709 mmHg 46%
    08:00 +25°C° 0 mm 1 mps 709 mmHg 43%
    09:00 +26°C° 0 mm 1 mps 709 mmHg 40%
    10:00 +27°C° 0 mm 2 mps 709 mmHg 37%
    11:00 +28°C° 0 mm 2 mps 708 mmHg 35%
    12:00 +29°C° 0 mm 2 mps 707 mmHg 33%
    13:00 +31°C° 0 mm 2 mps 707 mmHg 31%
    14:00 +31°C° 0 mm 2 mps 706 mmHg 30%
    15:00 +31°C° 0 mm 2 mps 706 mmHg 30%
    16:00 +32°C° 0 mm 2 mps 705 mmHg 29%
    17:00 +31°C° 0 mm 2 mps 706 mmHg 30%
    18:00 +30°C° 0 mm 2 mps 706 mmHg 31%
    19:00 +30°C° 0 mm 2 mps 706 mmHg 33%
    20:00 +29°C° 0 mm 2 mps 706 mmHg 34%
    21:00 +28°C° 0 mm 2 mps 707 mmHg 35%
    22:00 +28°C° 0 mm 2 mps 707 mmHg 36%
    23:00 +28°C° 0 mm 2 mps 707 mmHg 38%
    Show more